{"data":{"norad_id":43874,"epoch":"2026-05-24T18:20:45.475008Z","epoch_age_seconds":105566,"freshness":"FRESH","line1":"1 43874U 18110A   26144.76441522 -.00000220  00000+0  00000+0 0  9998","line2":"2 43874   2.4869  80.7630 0001281  48.4318 176.5139  1.00268621 27187","mean_motion":1.00268621,"eccentricity":0.0001281,"inclination_deg":2.4869,"raan_deg":80.763,"arg_perigee_deg":48.4318,"mean_anomaly_deg":176.5139,"bstar":0,"rev_number":2718,"period_min":1436.1422204061,"perigee_km":35782.080552781,"apogee_km":35792.883384361,"semimajor_km":42165.618968571,"source":"CELESTRAK","updated_at":"2026-05-25T13:38:14.060490Z"}}